Location: Vesunti
(61.5000°N, 22.8333°E)
Time: 11:26:11
(UTC+00:00)

Cosmos 1743 Rocket - Pass Details

Date: 17 February 2020
Orbit: 605 x 632 km, 82.6° (Epoch: 08 April)

Event Time Altitude Azimuth Distance (km) Brightness Sun altitude
Rises 03:25:30 0° 344° (NNW) 2,886 6.9 -19.9°
Reaches altitude 10° 03:27:44 10° 342° (NNW) 1,974 6.1 -19.6°
Maximum altitude 03:32:04 70° 260° (W) 650 3.4 -19.1°
Drops below altitude 10° 03:36:23 10° 177° (S) 1,957 6.1 -18.6°
Sets 03:38:35 0° 175° (S) 2,857 6.9 -18.3°
